Mount Airy, NC

2:38 AM EDT on May 30, 2017 (GMT -0400)
Mount Airy-Surry County

Weather History for KMWK - October, 2011

Change the Weather History Date:

Monday, October 10, 2011

  Actual Average (KINT) Record (KINT)
Temperature  
Mean Temperature 64 °F -  
Max Temperature 73 °F 70 °F 89 °F (1997)
Min Temperature 55 °F 50 °F 30 °F (1987)
Degree Days  
Heating Degree Days 1    
Growing Degree Days 14 (Base 50)    
Moisture  
Dew Point 51 °F    
Average Humidity 58    
Maximum Humidity 82    
Minimum Humidity 38    
Precipitation  
Precipitation 0.00 in - - ()
Sea Level Pressure  
Sea Level Pressure 30.24 in    
Wind  
Wind Speed 7 mph (ENE)    
Max Wind Speed 13 mph    
Max Gust Speed 20 mph    
Visibility 10 miles    
Events      
Averages and records for this station are not official NWS values.
T = Trace of Precipitation, MM = Missing Value Source: NWS Daily Summary

Daily Weather History Graph

Daily Weather History Graph

Search for Another Location

Airport or City:

Trip Planner

Search our weather history database for the weather conditions in past years. The results will help you decide how hot, cold, wet, or windy it might be!

Date:

Astronomy

Oct. 10, 2011 Rise Set
Actual Time 7:24 AM EDT 6:53 PM EDT
Civil Twilight 6:58 AM EDT 7:18 PM EDT
Nautical Twilight 6:29 AM EDT 7:48 PM EDT
Astronomical Twilight 5:59 AM EDT 8:18 PM EDT
Moon 5:56 PM EDT (10/10) 6:05 AM EDT (10/10)
Length of Visible Light 12h 20m
Length of Day
11h 28m
Waxing Gibbous, 98% of the Moon is Illuminated
Oct 10
Waxing Gibbous
Oct 11
Full
Oct 19
Last Quarter
Oct 26
New
Nov 2
First Quarter

Hourly Weather History & Observations

Time (EDT) Temp. Dew Point Humidity Pressure Visibility Wind Dir Wind Speed Gust Speed Precip Events Conditions
12:15 AM 64.4 °F 48.2 °F 56% 30.34 in 10.0 mi ENE 6.9 mph - N/A   Clear
12:35 AM 64.4 °F 48.2 °F 56% 30.34 in 10.0 mi ENE 8.1 mph - N/A   Clear
12:55 AM 64.4 °F 48.2 °F 56% 30.34 in 10.0 mi ENE 8.1 mph - N/A   Clear
1:15 AM 62.6 °F 50.0 °F 63% 30.33 in 10.0 mi ENE 9.2 mph - N/A   Clear
1:35 AM 62.6 °F 50.0 °F 63% 30.33 in 10.0 mi ENE 8.1 mph - N/A   Clear
1:55 AM 62.6 °F 50.0 °F 63% 30.32 in 10.0 mi NE 8.1 mph - N/A   Clear
2:15 AM 62.6 °F 50.0 °F 63% 30.32 in 10.0 mi NE 8.1 mph - N/A   Clear
2:35 AM 62.6 °F 50.0 °F 63% 30.31 in 10.0 mi ENE 12.7 mph 16.1 mph N/A   Clear
2:55 AM 62.6 °F 50.0 °F 63% 30.30 in 10.0 mi ENE 11.5 mph 16.1 mph N/A   Clear
3:15 AM 62.6 °F 50.0 °F 63% 30.29 in 10.0 mi ENE 9.2 mph - N/A   Clear
3:55 AM 62.6 °F 50.0 °F 63% 30.29 in 10.0 mi NE 5.8 mph - N/A   Clear
4:15 AM 62.6 °F 50.0 °F 63% 30.29 in 10.0 mi NE 4.6 mph - N/A   Clear
4:35 AM 62.6 °F 48.2 °F 59% 30.28 in 10.0 mi NE 5.8 mph - N/A   Clear
5:15 AM 59.0 °F 50.0 °F 72% 30.28 in 10.0 mi NE 3.5 mph - N/A   Clear
5:55 AM 55.4 °F 50.0 °F 82% 30.28 in 10.0 mi Calm Calm - N/A   Clear
6:15 AM 57.2 °F 50.0 °F 77% 30.28 in 10.0 mi Calm Calm - N/A   Clear
6:35 AM 55.4 °F 50.0 °F 82% 30.28 in 10.0 mi Calm Calm - N/A   Clear
7:15 AM 55.4 °F 50.0 °F 82% 30.28 in 10.0 mi Calm Calm - N/A   Clear
7:35 AM 57.2 °F 50.0 °F 77% 30.28 in 10.0 mi Calm Calm - N/A   Clear
7:55 AM 59.0 °F 50.0 °F 72% 30.28 in 10.0 mi Calm Calm - N/A   Clear
8:15 AM 59.0 °F 50.0 °F 72% 30.29 in 10.0 mi Calm Calm - N/A   Clear
8:35 AM 59.0 °F 51.8 °F 77% 30.29 in 10.0 mi Calm Calm - N/A   Clear
9:15 AM 62.6 °F 51.8 °F 68% 30.29 in 10.0 mi NE 6.9 mph - N/A   Clear
9:35 AM 64.4 °F 50.0 °F 59% 30.28 in 10.0 mi NE 5.8 mph - N/A   Clear
10:15 AM 66.2 °F 51.8 °F 60% 30.29 in 10.0 mi ENE 4.6 mph - N/A   Clear
10:35 AM 68.0 °F 51.8 °F 56% 30.29 in 10.0 mi ENE 6.9 mph - N/A   Clear
10:55 AM 68.0 °F 50.0 °F 52% 30.28 in 10.0 mi NE 8.1 mph - N/A   Clear
11:15 AM 68.0 °F 50.0 °F 52% 30.28 in 10.0 mi East 9.2 mph 16.1 mph N/A   Clear
11:35 AM 69.8 °F 48.2 °F 46% 30.27 in 10.0 mi ENE 11.5 mph 18.4 mph N/A   Clear
11:55 AM 69.8 °F 48.2 °F 46% 30.27 in 10.0 mi ENE 6.9 mph - N/A   Clear
12:15 PM 69.8 °F 50.0 °F 49% 30.26 in 10.0 mi East 10.4 mph - N/A   Clear
12:35 PM 71.6 °F 48.2 °F 43% 30.26 in 10.0 mi ENE 10.4 mph 18.4 mph N/A   Clear
12:55 PM 71.6 °F 48.2 °F 43% 30.24 in 10.0 mi East 11.5 mph 16.1 mph N/A   Clear
1:15 PM 73.4 °F 48.2 °F 41% 30.24 in 10.0 mi East 8.1 mph - N/A   Clear
1:35 PM 73.4 °F 48.2 °F 41% 30.22 in 10.0 mi East 11.5 mph 17.3 mph N/A   Clear
2:15 PM 73.4 °F 46.4 °F 38% 30.21 in 10.0 mi East 12.7 mph - N/A   Clear
2:35 PM 73.4 °F 46.4 °F 38% 30.20 in 10.0 mi East 10.4 mph - N/A   Clear
2:55 PM 73.4 °F 46.4 °F 38% 30.19 in 10.0 mi East 9.2 mph - N/A   Clear
3:15 PM 73.4 °F 48.2 °F 41% 30.18 in 10.0 mi ENE 10.4 mph 16.1 mph N/A   Clear
3:35 PM 73.4 °F 48.2 °F 41% 30.18 in 10.0 mi ENE 5.8 mph - N/A   Clear
3:55 PM 71.6 °F 50.0 °F 46% 30.18 in 10.0 mi East 8.1 mph 16.1 mph N/A   Clear
4:15 PM 71.6 °F 51.8 °F 50% 30.18 in 10.0 mi East 9.2 mph - N/A   Clear
4:35 PM 71.6 °F 51.8 °F 50% 30.17 in 10.0 mi ENE 9.2 mph - N/A   Clear
5:15 PM 71.6 °F 53.6 °F 53% 30.17 in 10.0 mi ENE 4.6 mph - N/A   Clear
5:35 PM 71.6 °F 53.6 °F 53% 30.16 in 10.0 mi ENE 6.9 mph - N/A   Clear
5:55 PM 71.6 °F 53.6 °F 53% 30.16 in 10.0 mi ENE 4.6 mph - N/A   Clear
6:15 PM 71.6 °F 53.6 °F 53% 30.16 in 10.0 mi NE 3.5 mph - N/A   Clear
6:35 PM 69.8 °F 53.6 °F 56% 30.16 in 10.0 mi ENE 4.6 mph - N/A   Clear
6:55 PM 69.8 °F 53.6 °F 56% 30.16 in 10.0 mi ENE 4.6 mph - N/A   Clear
7:15 PM 69.8 °F 53.6 °F 56% 30.15 in 10.0 mi NE 6.9 mph - N/A   Clear
7:35 PM 69.8 °F 53.6 °F 56% 30.15 in 10.0 mi NE 8.1 mph - N/A   Clear
7:55 PM 69.8 °F 53.6 °F 56% 30.15 in 10.0 mi ENE 6.9 mph - N/A   Clear
8:15 PM 68.0 °F 53.6 °F 60% 30.15 in 10.0 mi ENE 8.1 mph - N/A   Clear
8:35 PM 68.0 °F 53.6 °F 60% 30.15 in 10.0 mi NE 9.2 mph - N/A   Clear
8:55 PM 68.0 °F 53.6 °F 60% 30.15 in 10.0 mi ENE 10.4 mph - N/A   Clear
9:35 PM 68.0 °F 53.6 °F 60% 30.16 in 10.0 mi ENE 9.2 mph - N/A   Clear
9:55 PM 68.0 °F 53.6 °F 60% 30.16 in 10.0 mi ENE 8.1 mph - N/A   Clear
10:15 PM 68.0 °F 53.6 °F 60% 30.15 in 10.0 mi ENE 8.1 mph - N/A   Mostly Cloudy
10:35 PM 68.0 °F 53.6 °F 60% 30.15 in 10.0 mi ENE 9.2 mph 19.6 mph N/A   Overcast
10:55 PM 68.0 °F 53.6 °F 60% 30.15 in 10.0 mi ENE 11.5 mph 16.1 mph N/A   Overcast
11:15 PM 68.0 °F 53.6 °F 60% 30.15 in 10.0 mi ENE 8.1 mph - N/A   Overcast
11:35 PM 68.0 °F 53.6 °F 60% 30.15 in 10.0 mi ENE 8.1 mph - N/A   Overcast
11:55 PM 68.0 °F 53.6 °F 60% 30.15 in 10.0 mi ENE 9.2 mph - N/A   Overcast